Diego Garcia, British Indian Ocean

9:13 AM +06 on September 20, 2019 (GMT +0600)
Diego Garcia

Weather History for FJDG - August, 2019

Change the Weather History Date:

Saturday, August 24, 2019

  Actual Average Record
Temperature  
Mean Temperature 83 °F -  
Max Temperature 87 °F 80 °F 89 °F (2015)
Min Temperature 79 °F 74 °F 74 °F (1998)
Cooling Degree Days 18    
Growing Degree Days 33 (Base 50)    
Moisture  
Dew Point 76 °F    
Average Humidity 80    
Maximum Humidity 91    
Minimum Humidity 70    
Precipitation  
Precipitation 0.00 in - - ()
Sea Level Pressure  
Sea Level Pressure 29.90 in    
Wind  
Wind Speed 10 mph ()    
Max Wind Speed 16 mph    
Max Gust Speed -    
Visibility 6.2 miles    
Events      
Averages and records for this station are not official NWS values.
T = Trace of Precipitation, MM = Missing Value Source: Averaged Metar Reports

Daily Weather History Graph

Daily Weather History Graph

Search for Another Location

Airport or City:

Astronomy

Aug. 24, 2019 Rise Set
Actual Time 7:15 AM +06 7:10 PM +06
Civil Twilight 6:54 AM +06 7:31 PM +06
Nautical Twilight 6:29 AM +06 7:56 PM +06
Astronomical Twilight 6:05 AM +06 8:20 PM +06
Moon 1:17 AM +06 (8/24) 1:21 PM +06 (8/24)
Length of Visible Light 12h 37m
Length of Day
11h 55m
Last Quarter, 44% of the Moon is Illuminated
Aug 24
Last Quarter
Aug 30
New
Sep 6
First Quarter
Sep 14
Full
Sep 22
Last Quarter

Hourly Weather History & Observations

Time (+06) Temp. Heat Index Dew Point Humidity Pressure Visibility Wind Dir Wind Speed Gust Speed Precip Events Conditions
12:55 AM 80.2 °F 86.5 °F 77.5 °F 91% 29.93 in 6.2 mi SE 10.4 mph - N/A   Scattered Clouds
1:55 AM 79.9 °F - 76.6 °F 90% 29.91 in 6.2 mi SE 10.4 mph - N/A   Scattered Clouds
2:55 AM 79.5 °F - 75.7 °F 88% 29.90 in 6.2 mi SE 12.7 mph - N/A   Scattered Clouds
3:55 AM 79.2 °F - 75.4 °F 88% 29.89 in 6.2 mi SE 10.4 mph - N/A   Scattered Clouds
5:55 AM 79.0 °F - 74.5 °F 86% 29.88 in 6.2 mi SE 16.1 mph - N/A   Partly Cloudy
6:55 AM 79.0 °F - 75.0 °F 88% 29.89 in 6.2 mi SE 11.5 mph - N/A   Scattered Clouds
7:55 AM 79.3 °F - 75.6 °F 88% 29.91 in 6.2 mi SE 12.7 mph - N/A   Scattered Clouds
8:55 AM 80.8 °F 86.9 °F 75.9 °F 85% 29.92 in 6.2 mi SE 13.8 mph - N/A   Scattered Clouds
9:55 AM 82.4 °F 90.3 °F 76.5 °F 82% 29.93 in 6.2 mi SE 13.8 mph - N/A   Scattered Clouds
10:55 AM 83.8 °F 91.8 °F 75.2 °F 75% 29.93 in 6.2 mi SE 11.5 mph - N/A   Partly Cloudy
11:55 AM 85.3 °F 93.4 °F 74.5 °F 70% 29.92 in 6.2 mi SE 13.8 mph - N/A   Partly Cloudy
1:55 PM 87.1 °F 97.8 °F 76.1 °F 70% 29.88 in 6.2 mi SSE 9.2 mph - N/A   Partly Cloudy
2:55 PM 85.1 °F 94.5 °F 75.9 °F 74% 29.87 in 6.2 mi SE 12.7 mph - N/A   Partly Cloudy
3:55 PM 85.6 °F 94.6 °F 75.4 °F 71% 29.85 in 6.2 mi SE 10.4 mph - N/A   Partly Cloudy
4:55 PM 84.9 °F 94.1 °F 75.7 °F 74% 29.85 in 6.2 mi SE 10.4 mph - N/A   Partly Cloudy
5:55 PM 84.9 °F 93.7 °F 75.4 °F 73% 29.86 in 6.2 mi SE 11.5 mph - N/A   Partly Cloudy
6:55 PM 84.0 °F 92.6 °F 75.7 °F 76% 29.87 in 6.2 mi SSE 9.2 mph - N/A   Partly Cloudy
7:55 PM 82.8 °F 90.1 °F 75.4 °F 78% 29.90 in 6.2 mi SE 10.4 mph - N/A   Partly Cloudy
8:55 PM 82.4 °F 89.8 °F 75.7 °F 80% 29.91 in 6.2 mi SSE 9.2 mph - N/A   Partly Cloudy
9:55 PM 82.0 °F 88.9 °F 75.2 °F 80% 29.93 in 6.2 mi SSE 10.4 mph - N/A   Partly Cloudy
10:55 PM 81.7 °F 88.3 °F 75.4 °F 81% 29.93 in 6.2 mi SSE 10.4 mph - N/A   Scattered Clouds
11:55 PM 81.9 °F 88.5 °F 75.0 °F 80% 29.93 in 6.2 mi SSE 10.4 mph - N/A   Partly Cloudy